Wind_Gust
11 14 12 11 10 10 10 8 7 8 8 8 9 9 9 10 10 11 10 10 9 8 9 8 9 8 8 9 8 7 9 10 11 12 12 14 13 13 11 13 12 10 8 9 9 12 16 20 17 17 17 17 19 19 18 18 18 17 16 16 17 17 17
13 13 12 11 11 9 10 8 7 9 10 8 8 8 9 9 9 10 11 11 10 9 8 8 8 8 8 9 9 10 11 11 10 9 12 14 13 16 15 13 13 12 10 8 7 8 16 19 18 18 20 18 20 18 17 17 18 17 17 17 18 18 17
13 12 11 12 10 8 10 8 7 8 9 9 8 9 9 9 8 9 8 9 9 10 9 9 9 8 8 9 8 8 8 10 10 11 11 13 12 14 12 13 13 13 13 13 11 12 11 10 18 20 17 17 21 18 14 17 17 17 18 18 18 19 18
14 14 14 12 11 9 10 8 7 8 8 9 8 8 8 9 8 8 8 8 8 9 10 10 8 9 9 9 8 9 8 8 10 12 13 11 11 12 11 11 13 13 12 15 15 14 13 14 18 17 15 18 21 19 16 15 17 19 19 17 18 19 17
15 14 15 15 13 12 10 10 8 9 10 9 7 8 8 8 8 9 8 9 9 8 8 7 8 8 9 9 9 9 10 10 10 12 13 14 12 13 10 10 10 10 11 12 12 11 13 16 15 18 18 18 17 18 16 15 17 19 20 20 19 18 18
12 12 12 13 11 12 10 9 9 10 10 10 8 9 8 8 8 9 8 8 9 8 8 9 9 9 9 9 10 10 11 11 11 12 13 12 13 14 14 10 12 13 13 10 10 11 11 12 15 17 15 12 17 16 14 11 15 18 19 19 19 19 19
11 11 12 13 11 10 10 9 9 10 11 10 9 8 8 8 9 9 9 9 10 9 8 9 9 8 8 11 10 11 11 10 11 13 14 12 12 12 11 13 12 13 12 9 11 12 13 13 16 17 18 14 14 17 15 13 11 13 17 18 18 18 18
13 13 13 14 14 11 9 9 7 8 11 10 9 8 8 9 9 9 10 10 10 9 9 8 8 8 8 10 11 11 11 10 11 12 13 13 13 12 11 13 13 13 11 11 11 12 11 11 13 17 20 22 16 13 14 14 16 17 13 16 17 17 17
9 10 11 10 11 11 11 10 9 8 11 11 10 9 9 9 10 10 11 11 10 9 9 9 8 9 8 10 10 10 11 8 11 12 12 13 13 13 13 12 14 15 12 13 13 12 13 12 11 10 11 15 20 18 13 13 12 16 13 13 16 17 16
12 11 12 12 13 11 10 8 8 9 11 11 11 9 10 10 10 9 10 11 10 10 10 10 10 9 8 9 10 10 11 9 10 12 11 13 13 13 13 13 15 16 14 12 13 12 12 11 12 10 8 9 10 17 16 13 11 11 13 13 11 15 15
11 11 10 12 12 13 11 10 8 10 11 12 12 10 11 11 10 9 10 11 10 10 11 11 11 10 9 10 10 10 10 9 11 10 11 12 12 13 13 14 14 15 11 12 12 10 11 11 11 12 12 10 8 11 11 12 12 8 10 10 12 13 13
11 12 10 11 11 12 13 13 12 10 10 11 14 12 11 12 11 10 10 11 10 11 10 11 10 10 9 11 10 11 9 9 11 11 10 11 10 11 12 13 12 13 10 11 10 10 10 10 11 12 12 12 13 11 12 11 14 10 9 10 11 12 12
11 13 13 13 12 12 13 14 14 11 12 10 10 12 12 12 11 11 10 11 11 10 10 10 9 10 10 10 10 11 10 10 12 12 11 9 10 10 12 12 11 11 10 11 11 10 10 9 9 11 12 12 12 11 10 10 12 13 9 10 10 11 11
12 11 11 12 10 10 10 9 10 11 12 10 10 11 13 13 13 12 12 12 12 11 10 10 9 9 9 10 10 9 9 9 12 11 11 10 10 10 13 13 12 10 8 10 11 11 12 12 11 11 11 12 12 10 10 10 13 14 12 8 8 10 10
11 11 11 11 8 9 11 11 9 8 11 12 10 11 12 11 12 13 13 13 13 12 12 11 10 9 10 10 10 8 7 8 9 10 9 11 10 9 10 12 13 11 10 13 11 14 15 14 14 14 13 11 12 11 8 10 12 10 12 11 10 9 10
13 12 12 11 10 9 10 11 12 10 10 12 11 10 11 11 11 12 12 11 12 12 12 12 10 9 9 8 9 8 8 8 9 10 10 10 11 9 10 10 10 10 8 12 11 11 11 12 12 14 13 12 13 11 11 10 10 12 11 12 8 10 9
12 12 12 11 11 10 11 11 13 13 11 12 14 11 11 13 14 13 13 12 11 11 11 11 11 11 11 10 9 8 7 7 7 8 10 11 11 10 10 9 9 10 10 11 12 12 11 11 11 13 13 12 13 13 11 9 9 10 10 11 9 8 9
11 11 11 10 10 11 12 12 13 15 14 13 14 15 13 12 13 14 13 14 13 12 10 10 10 11 10 10 10 10 9 8 8 8 8 8 6 11 11 11 11 11 11 11 10 11 12 11 13 13 13 13 13 12 10 10 11 11 11 11 12 9 7
14 12 11 10 12 12 12 13 14 14 15 15 14 15 17 15 13 13 13 12 13 13 13 11 10 10 10 9 9 9 9 10 10 10 10 9 9 9 11 11 10 12 12 12 11 10 11 12 12 12 13 12 13 12 10 10 10 11 11 11 9 10 8
13 12 12 12 12 14 14 14 15 16 16 17 16 15 15 16 14 13 13 13 14 14 14 12 10 10 11 11 10 10 9 9 10 10 10 11 11 9 9 10 8 8 8 10 10 12 13 12 12 11 11 11 11 11 10 9 9 10 9 10 9 7 7
12 12 11 12 14 15 15 16 17 17 17 18 17 17 16 14 14 14 16 14 13 13 13 12 11 10 10 9 8 8 9 9 9 10 11 13 12 14 15 15 14 15 18 19 18 16 14 14 11 11 11 11 11 10 10 10 9 8 8 7 7 7 6
11 12 13 14 15 15 16 16 17 18 18 19 16 16 15 14 15 15 14 12 11 10 9 8 7 7 8 8 8 10 10 11 11 12 13 13 14 16 17 16 16 17 17 14 13 10 11 10 15 14 12 13 13 12 10 9 8 7 7 6 6 6 8
12 11 12 14 15 15 15 14 14 15 15 13 10 12 11 10 11 15 16 13 10 8 8 7 6 9 9 10 10 11 11 12 13 13 13 13 13 15 16 16 16 11 9 11 11 10 10 11 10 11 15 14 15 12 11 10 8 6 6 7 8 10 12
9 11 10 10 10 12 12 11 11 11 12 12 11 9 11 13 12 13 16 15 14 11 9 8 8 11 12 13 12 11 12 13 12 13 14 14 15 14 15 16 14 11 12 10 15 12 12 11 7 7 11 7 4 11 12 10 8 7 6 6 5 6 8
9 9 8 9 8 9 9 11 13 13 13 14 14 13 14 12 12 13 13 14 13 13 13 11 11 13 13 10 7 12 14 14 13 13 14 14 14 14 12 10 10 9 11 12 14 16 11 7 7 11 12 10 10 9 7 7 9 9 8 7 7 7 10
9 9 10 10 10 11 11 11 12 13 14 14 13 16 15 13 13 11 11 14 14 15 17 14 15 13 11 9 8 10 13 14 13 13 13 13 12 12 11 10 9 9 9 7 11 13 16 16 11 14 14 14 12 10 10 11 9 7 8 8 8 8 9
10 8 8 9 9 11 12 13 12 12 12 12 15 17 18 16 14 15 14 13 11 10 12 13 13 12 10 8 8 8 12 13 12 11 11 10 10 10 10 10 10 7 8 10 10 13 16 18 19 18 15 13 13 12 9 9 8 7 5 7 8 9 7
12 10 9 8 8 9 11 10 10 11 12 15 17 18 19 19 18 15 15 13 11 9 12 9 7 6 5 6 7 7 8 7 7 6 6 7 7 7 7 8 8 6 8 8 9 12 17 18 17 16 15 13 13 12 12 11 10 9 9 8 8 8 8
11 10 10 10 11 11 12 13 14 13 11 14 14 12 10 12 13 12 10 10 9 11 12 9 8 8 9 10 11 9 10 9 9 9 10 9 9 8 7 6 7 8 9 10 9 11 12 18 17 16 15 14 13 13 13 8 8 10 12 11 10 9 9
10 10 9 10 12 13 12 14 13 13 15 16 16 16 15 13 12 12 12 12 13 12 12 8 10 11 11 12 8 11 11 11 11 11 10 9 10 10 9 9 10 12 12 13 9 12 11 10 15 15 14 13 12 11 11 10 8 7 8 8 7 7 6
8 8 8 11 11 11 10 9 11 12 13 13 13 13 12 13 12 13 14 13 14 13 11 9 9 11 13 11 8 13 12 13 12 11 11 10 11 13 15 12 8 14 15 14 9 11 10 12 14 14 14 14 12 11 11 9 9 9 4 3 2 2 1
10 9 9 9 7 8 9 9 7 8 8 9 11 12 12 14 13 12 10 10 5 11 12 9 8 11 10 10 11 13 15 15 14 12 13 13 11 14 15 14 14 13 14 13 11 9 8 9 13 13 13 12 11 11 10 9 8 9 9 9 9 9 11
9 10 11 9 8 8 7 8 9 9 8 9 11 10 10 11 13 11 10 10 9 9 11 11 11 9 9 10 8 13 15 16 16 15 14 16 16 14 15 16 15 12 14 14 13 13 11 9 13 12 10 10 10 11 11 9 9 8 8 7 8 8 10
10 9 9 10 9 9 9 10 9 10 12 11 11 11 10 11 13 12 11 10 10 10 9 11 11 8 9 8 8 8 13 14 16 16 16 15 16 16 15 15 15 11 15 15 15 14 13 11 8 13 10 11 11 12 6 10 11 3 8 8 10 11 12
9 7 6 7 9 11 11 10 9 9 10 12 13 12 10 11 13 13 11 10 10 10 8 6 11 8 9 9 7 3 10 13 14 17 15 15 15 15 15 15 15 11 14 15 15 14 13 12 10 15 16 9 8 5 9 9 7 7 8 10 11 13 13
10 8 7 7 8 9 8 10 10 11 13 12 13 12 12 12 14 14 12 10 9 9 9 9 5 11 9 11 10 7 9 13 7 14 18 17 15 16 15 16 15 10 13 14 14 14 13 13 11 15 10 10 9 6 4 8 8 9 10 12 13 14 14
10 11 9 8 7 8 8 9 10 10 10 14 14 14 13 13 14 15 14 11 9 9 9 11 5 5 11 12 13 15 13 11 9 10 15 17 16 17 18 17 16 13 14 15 15 15 13 11 16 11 10 9 6 3 9 8 9 10 11 12 13 14 15
Wind_Speed
5 6 5 4 4 3 3 2 2 2 2 2 3 3 3 3 3 4 3 3 3 2 3 2 3 2 2 2 3 1 3 3 5 4 5 6 5 5 4 3 3 3 3 2 4 4 6 8 7 7 8 9 10 9 9 9 9 8 8 7 8 8 7
6 6 5 4 4 3 5 2 2 3 3 2 2 3 3 3 3 3 4 3 3 2 2 2 3 2 3 3 3 3 3 3 3 3 4 5 5 7 6 6 5 4 3 2 1 2 6 8 7 8 9 9 10 8 8 8 8 8 8 8 8 8 8
5 5 4 5 4 3 4 3 2 2 3 3 2 2 2 3 2 2 2 3 3 3 3 2 3 2 2 2 2 2 3 3 2 3 3 4 4 5 4 5 5 5 4 4 3 4 4 4 7 8 8 8 9 7 6 7 9 8 9 8 8 9 8
7 7 7 5 4 4 4 3 2 2 2 3 2 2 3 3 3 2 2 2 2 2 3 3 2 2 3 3 3 3 3 3 3 5 5 5 5 5 4 4 5 5 5 6 6 5 5 6 8 7 6 7 10 9 7 7 8 8 8 8 8 8 8
8 7 7 8 6 6 4 3 2 3 3 3 2 2 2 2 2 3 3 3 3 2 2 2 2 2 3 3 3 3 3 4 4 5 6 6 6 5 4 3 3 3 4 5 4 4 5 6 6 8 7 7 7 7 6 7 8 9 9 9 8 8 8
4 5 6 6 5 5 4 4 3 4 4 4 2 3 3 3 2 3 2 2 3 2 2 2 2 2 3 3 3 4 4 5 4 5 5 6 6 6 5 4 4 5 5 4 3 4 4 4 6 7 6 4 6 6 5 4 5 7 8 8 8 8 8
5 5 5 6 5 4 4 4 3 4 4 4 3 2 2 2 3 3 3 3 3 3 2 3 2 2 2 3 4 4 5 4 4 6 7 6 6 6 5 5 5 5 4 3 4 4 5 5 6 8 8 5 6 6 5 4 3 3 6 7 7 7 7
2 2 3 6 7 5 3 3 2 2 4 4 3 2 2 3 4 3 4 4 4 3 3 3 2 2 2 3 4 4 4 3 5 5 5 6 5 5 6 6 5 5 4 4 4 4 3 3 5 7 9 9 6 5 5 5 6 7 4 6 6 7 7
4 4 4 4 4 5 5 4 3 2 4 5 3 3 3 3 4 4 4 5 4 4 3 3 2 2 2 3 4 4 4 2 4 6 5 6 6 7 7 6 6 6 5 5 5 4 5 4 4 4 4 6 8 7 5 4 4 6 4 3 6 7 6
7 5 6 6 6 5 4 3 3 3 5 5 5 3 4 4 4 3 4 5 4 4 4 4 4 3 3 3 3 4 4 3 4 5 4 6 6 6 6 7 7 7 6 5 5 5 4 4 4 3 2 3 3 6 6 5 4 3 5 4 2 5 6
4 4 4 6 6 6 5 4 2 4 5 5 5 4 4 5 4 4 4 5 4 4 5 4 4 4 3 4 4 4 3 3 4 4 4 5 5 5 6 6 6 6 4 5 5 4 4 4 4 5 5 3 2 3 4 4 4 2 3 3 4 4 5
5 6 5 5 5 6 6 6 6 4 4 5 6 6 5 5 4 4 4 5 4 4 4 4 4 4 3 4 4 4 3 3 4 5 4 4 4 4 5 6 5 5 4 4 4 4 3 4 4 5 5 5 5 5 4 4 5 2 2 3 4 4 4
6 6 6 6 5 6 6 6 7 5 6 4 5 6 5 5 5 5 4 4 4 4 4 4 3 4 4 4 4 4 3 4 5 5 4 3 3 4 5 5 4 4 3 4 4 4 3 3 3 4 4 5 5 4 3 3 5 5 2 3 3 3 4
7 5 6 6 4 4 4 3 4 4 6 5 4 5 6 6 6 6 6 5 5 4 4 4 3 3 3 4 3 3 3 3 5 4 4 4 3 4 5 6 5 4 3 4 4 4 4 5 4 4 4 4 5 3 3 4 5 6 4 2 2 3 3
5 4 5 5 4 4 5 5 4 3 4 5 4 5 5 5 5 6 6 6 5 5 5 5 4 3 3 4 4 2 2 3 3 4 3 4 4 2 4 5 6 5 3 5 5 6 6 5 5 5 4 4 4 4 2 3 4 4 5 3 3 2 3
6 7 6 5 5 4 4 6 6 4 3 4 5 4 5 5 5 5 5 5 5 5 5 5 4 3 3 2 3 3 2 3 3 4 4 4 4 3 3 4 4 3 2 5 5 4 5 5 4 5 5 4 5 4 3 3 3 4 4 4 2 2 2
6 6 6 4 5 5 5 5 6 6 5 4 6 5 5 6 7 6 6 5 5 5 5 4 5 4 4 4 3 2 1 1 1 2 3 4 4 4 3 3 3 4 4 5 5 5 4 4 4 5 5 5 5 5 4 3 3 4 3 4 3 1 2
5 5 5 4 5 5 6 6 6 7 7 6 7 7 6 5 6 6 6 6 6 5 4 3 3 4 3 3 4 4 3 2 2 2 2 2 3 4 4 4 4 4 4 4 4 4 4 5 5 5 5 5 5 4 3 3 4 4 4 4 4 2 1
7 6 5 5 6 6 6 6 7 6 8 7 7 7 8 7 6 6 5 5 6 6 5 5 4 3 3 3 3 3 3 4 3 3 3 3 3 3 3 4 4 5 5 5 4 4 5 6 5 5 5 4 4 4 4 3 2 3 3 3 2 3 2
6 6 6 5 6 6 7 7 8 8 8 9 8 7 7 8 6 6 6 6 7 7 6 5 4 4 4 4 4 3 3 3 3 3 3 4 3 3 3 3 1 1 2 3 4 6 6 6 5 5 4 4 3 4 3 3 3 3 3 2 2 1 1
5 5 5 5 6 7 7 8 9 8 9 9 9 9 8 8 7 7 6 6 6 6 6 5 4 3 2 2 2 2 2 3 3 3 4 5 5 6 7 6 7 7 10 10 10 8 7 6 4 5 5 4 4 4 3 3 2 2 2 1 1 1 0
5 5 6 7 7 8 8 8 9 9 9 10 8 9 8 7 8 8 7 6 6 4 4 3 2 2 2 2 2 4 3 4 4 5 5 6 6 8 8 8 8 9 9 11 12 8 8 7 6 6 5 6 6 5 4 3 2 1 1 0 0 0 2
5 5 6 7 7 7 7 7 7 8 8 6 4 2 4 5 5 7 8 7 5 3 3 2 3 5 4 3 3 3 3 5 6 6 6 5 6 7 8 8 8 10 8 10 10 9 7 7 7 4 7 6 7 5 4 3 2 0 1 1 2 3 4
3 4 4 4 4 5 5 4 5 5 5 6 5 4 5 6 6 6 7 8 8 6 5 4 6 6 7 7 5 5 5 6 5 5 5 7 7 6 7 8 7 7 8 8 7 9 10 8 6 3 8 4 1 3 5 3 2 1 0 1 1 1 2
3 3 2 2 2 2 3 5 6 6 6 7 7 6 7 6 5 6 6 6 7 8 6 8 9 6 8 8 5 5 6 6 5 5 5 6 5 5 5 4 4 3 4 5 6 8 6 6 5 8 9 8 6 8 7 2 3 2 2 2 1 2 3
3 3 3 3 4 4 4 5 6 7 7 7 7 8 7 6 6 5 5 7 6 7 7 8 10 10 8 8 7 6 5 6 6 6 6 5 5 5 4 3 2 2 2 6 5 6 8 7 8 11 12 11 9 9 8 9 9 2 2 2 2 2 2
3 2 2 3 4 5 5 6 6 6 6 6 7 9 10 9 7 7 7 6 5 5 5 11 12 11 9 7 7 6 5 6 6 5 4 4 3 4 3 3 3 1 2 3 3 5 8 9 10 9 7 6 5 6 7 8 6 6 3 1 2 3 1
5 4 3 3 2 3 5 5 4 4 5 7 8 9 9 10 10 8 7 6 5 3 5 8 4 5 5 6 7 6 3 2 1 0 1 1 2 1 2 2 2 1 1 2 3 6 9 9 8 7 7 6 5 5 5 4 3 3 2 2 1 2 2
4 4 4 4 4 5 4 5 5 5 5 7 7 6 5 6 7 6 4 4 3 4 5 7 7 7 8 9 10 4 3 3 3 3 2 2 2 2 1 0 1 2 3 3 6 8 9 9 9 8 7 6 6 5 5 5 6 7 6 4 3 2 2
4 4 3 4 5 6 5 6 6 5 7 8 7 8 7 6 5 5 5 4 5 4 5 6 9 10 10 10 6 4 4 4 4 4 3 3 3 4 3 2 3 4 5 6 6 9 10 9 7 7 6 6 5 4 4 3 5 6 6 7 6 6 5
3 3 3 5 5 4 4 3 4 5 6 6 6 6 5 4 4 5 6 6 6 6 4 5 8 10 11 9 6 6 5 5 5 4 4 4 4 5 7 9 5 6 7 6 7 8 7 7 6 6 6 6 5 4 3 3 2 3 3 2 1 0 1
4 3 4 4 3 3 3 3 1 2 2 3 4 4 5 5 5 4 4 4 4 6 5 5 7 10 9 8 6 6 6 6 6 5 5 5 5 6 6 8 11 9 8 8 9 8 5 4 6 5 5 5 4 4 3 2 1 2 2 2 2 2 4
3 4 5 3 3 3 2 3 3 3 2 2 3 3 3 4 5 4 3 4 3 3 5 5 5 8 8 8 7 6 6 7 7 6 6 6 7 6 7 7 8 10 11 11 10 9 8 6 6 5 3 2 3 4 3 2 2 1 0 1 2 2 3
4 3 3 4 3 3 4 4 4 4 5 4 4 4 3 3 5 5 4 4 4 3 3 4 5 7 8 7 6 5 5 6 7 7 7 6 6 7 6 6 6 8 11 12 12 11 11 10 7 5 3 3 4 5 2 2 3 3 1 2 3 4 4
3 2 1 2 3 4 4 4 4 4 4 5 6 5 4 4 5 4 4 4 4 3 4 4 5 6 8 8 7 3 4 6 6 8 7 6 6 6 6 6 6 7 11 12 12 12 11 10 9 7 7 8 7 3 2 2 0 1 2 3 4 5 5
4 2 1 2 3 4 2 4 4 4 6 6 7 6 5 5 6 6 4 3 3 3 3 3 3 4 6 8 7 4 6 8 5 7 8 7 7 7 6 7 7 8 11 11 12 11 11 11 9 7 8 8 7 4 2 1 1 2 3 4 4 5 5
4 4 3 3 2 3 3 4 4 4 4 6 6 6 5 5 6 7 6 4 3 3 3 4 3 4 6 8 9 10 10 9 7 4 7 7 7 7 8 8 8 11 12 12 11 11 10 9 8 9 8 7 5 2 1 1 2 3 4 4 5 5 5
Wind_Direction
128 129 134 119 102 115 118 115 119 113 112 116 137 137 145 154 153 149 148 144 146 139 161 152 150 161 152 149 174 161 152 162 167 174 177 159 165 135 141 123 92 100 113 47 146 171 137 132 108 86 74 69 67 61 61 63 60 57 54 53 56 52 46
99 105 111 111 115 122 112 101 108 110 108 96 98 118 129 142 157 153 157 156 145 134 138 134 140 146 141 153 169 183 180 154 167 158 171 174 166 145 147 140 138 121 101 89 132 214 159 139 130 118 107 89 75 64 66 68 68 64 60 58 55 58 55
105 110 117 117 114 116 105 99 111 113 107 107 93 84 99 110 119 136 145 133 134 128 127 121 121 123 134 141 168 154 159 161 154 168 174 161 143 143 151 147 145 141 148 150 159 154 142 150 146 146 138 117 91 69 64 71 71 67 65 59 56 53 52
139 138 133 128 123 123 120 118 118 106 93 96 97 83 69 79 88 77 77 89 90 105 121 137 143 129 132 139 143 136 140 144 140 135 129 135 134 142 149 176 165 175 177 171 165 160 150 138 133 131 135 119 114 102 73 65 67 68 66 61 56 51 47
152 154 148 143 143 132 129 132 136 127 110 101 101 105 83 71 79 76 70 79 83 94 109 110 117 122 126 131 135 127 113 107 118 127 127 136 139 133 130 123 100 110 116 121 122 140 143 143 143 136 131 127 114 104 111 85 71 68 59 55 53 54 50
147 142 141 133 135 135 138 146 157 136 127 127 126 116 92 89 95 104 101 97 102 88 89 103 102 104 114 117 113 114 118 124 122 119 115 114 122 123 115 103 106 101 94 85 108 112 106 126 134 129 123 145 128 125 123 126 95 71 59 58 54 48 48
156 157 148 134 125 129 148 161 169 148 138 133 133 109 94 97 88 79 84 74 65 78 75 76 83 90 103 116 116 108 107 101 107 104 105 102 95 102 113 111 99 98 94 94 104 118 130 144 144 139 136 123 132 128 122 113 120 123 77 60 54 51 48
166 157 142 133 141 152 173 163 165 148 127 125 121 107 100 88 90 95 89 90 78 69 70 81 81 85 67 89 87 85 87 93 104 104 104 109 104 104 96 101 103 101 105 112 115 111 125 125 137 142 144 139 135 134 127 115 93 62 91 78 49 56 52
166 155 136 123 141 156 157 162 156 149 121 126 121 122 97 95 88 91 93 84 83 76 68 68 73 84 68 89 96 94 97 80 100 98 102 101 103 105 106 111 111 105 105 103 99 90 87 90 116 148 159 152 148 145 146 128 108 83 36 89 86 52 50
177 165 141 157 155 148 138 132 152 147 133 135 128 126 118 105 98 94 97 91 82 81 78 67 61 55 48 71 86 98 100 98 102 105 108 112 114 117 115 112 110 113 106 99 98 97 93 87 89 104 152 160 154 146 156 134 96 107 82 29 50 67 46
163 144 152 154 153 142 138 132 157 168 154 138 130 130 124 117 110 105 102 94 86 79 76 75 71 73 75 72 61 61 58 76 89 90 94 107 110 112 116 115 116 114 113 111 107 106 105 95 88 83 81 84 120 133 135 132 108 62 96 89 42 55 52
171 161 161 151 156 147 157 153 179 168 139 142 135 135 132 124 120 117 113 108 97 89 83 81 85 83 88 100 95 94 74 78 92 89 83 92 92 107 113 111 111 111 113 108 112 105 100 103 99 97 87 75 75 86 102 120 130 93 355 74 70 50 49
183 172 162 155 169 166 168 165 162 166 151 148 136 137 134 126 122 120 115 111 112 107 104 95 93 102 102 100 110 111 105 111 111 112 110 101 105 108 112 110 103 107 112 122 118 115 112 97 97 104 100 95 90 82 85 80 86 111 81 52 70 77 57
184 178 154 162 169 141 148 159 168 170 141 141 139 142 141 137 132 127 125 122 121 120 112 107 97 101 103 101 92 94 110 125 130 130 134 131 137 133 128 125 122 120 126 120 121 128 125 124 118 110 108 110 106 96 83 92 105 118 123 91 68 71 53
181 179 165 156 159 141 148 154 152 158 151 129 138 142 142 136 138 137 130 129 129 131 131 122 123 122 127 126 117 112 117 134 137 139 153 149 145 139 142 142 142 146 152 135 140 138 138 143 138 132 125 117 110 99 65 93 93 106 122 152 130 118 96
182 183 182 167 165 158 151 142 147 149 142 130 127 142 142 141 137 137 131 131 130 126 130 130 127 129 119 119 136 140 154 162 163 163 171 165 165 150 161 155 152 150 153 149 150 137 147 148 144 125 121 116 110 106 100 96 117 110 125 119 143 129 100
176 183 187 181 161 158 153 153 154 149 147 149 139 141 152 149 147 142 135 133 134 134 133 132 137 140 133 128 116 100 62 353 294 222 195 180 176 180 189 183 171 168 171 163 159 155 162 151 146 134 135 127 126 124 118 122 103 112 128 134 143 112 100
196 195 194 174 164 159 161 158 156 153 152 160 153 149 154 159 155 153 150 150 142 133 124 121 124 127 133 142 145 151 162 171 207 245 259 240 206 206 203 213 191 187 190 175 168 174 166 168 155 153 152 146 141 136 142 133 124 128 131 125 140 143 166
202 203 194 178 174 171 165 165 155 151 157 158 161 161 157 159 160 153 145 135 126 122 120 119 121 128 137 148 155 161 169 174 183 206 224 245 234 224 240 239 209 197 201 202 190 182 179 179 171 169 160 156 140 139 127 118 111 102 96 101 123 143 150
200 200 197 188 177 176 176 169 164 161 163 160 165 172 171 164 155 140 130 129 131 132 133 139 150 169 177 174 176 176 180 192 192 195 209 214 223 222 219 241 265 345 312 280 224 196 200 191 182 176 158 147 145 140 139 127 120 116 102 116 113 59 123
193 197 193 189 188 188 180 174 176 167 169 170 174 175 175 169 146 141 140 142 145 151 153 165 174 190 206 191 190 210 221 232 239 222 224 221 207 212 214 213 205 188 197 216 231 213 196 190 179 173 161 154 150 156 144 139 140 117 111 95 41 84 75
199 192 189 189 190 190 188 183 179 175 179 180 179 182 183 162 151 143 143 149 163 173 151 142 161 199 232 224 229 251 242 239 238 245 240 231 214 218 226 219 214 216 208 215 222 226 203 185 177 178 166 165 166 170 160 151 136 111 115 339 92 63 335
205 198 191 193 195 192 189 184 180 182 189 194 190 185 154 150 149 151 146 144 152 146 122 117 192 206 228 260 267 266 260 254 246 244 246 244 226 217 222 221 222 220 206 202 209 220 224 207 208 196 165 176 175 170 160 157 158 129 340 334 9 354 333
228 221 212 203 199 197 192 183 189 192 197 206 207 184 177 182 173 164 165 159 162 163 158 158 187 224 234 239 256 265 254 253 245 246 250 251 252 237 220 221 227 202 208 206 202 209 203 200 210 190 160 151 35 167 164 151 145 142 261 315 119 276 299
275 275 278 254 228 215 196 195 201 207 207 206 204 196 201 196 183 170 173 173 171 161 160 170 175 210 244 253 239 245 255 257 255 259 255 254 256 256 248 225 213 198 213 206 189 187 188 160 140 119 104 90 83 52 32 48 150 175 206 240 232 243 290
259 262 271 273 259 245 234 224 218 214 210 212 203 207 205 198 195 191 193 188 187 169 161 178 179 196 216 226 224 225 249 257 259 252 250 249 254 264 273 267 240 194 183 160 195 179 156 132 117 115 110 99 71 63 65 54 37 23 188 224 257 264 267
264 262 254 250 243 242 239 239 236 231 227 209 205 212 209 203 195 197 201 199 196 183 170 155 165 175 194 192 200 195 236 245 250 255 257 260 261 267 267 279 282 236 144 169 174 159 147 141 139 135 131 119 106 93 78 74 78 52 19 316 293 296 84
286 272 245 234 232 234 239 241 230 222 219 222 213 206 205 205 203 197 195 195 183 134 64 85 127 161 171 167 162 191 207 205 210 169 23 351 315 301 302 293 286 311 107 145 144 152 143 142 133 124 117 108 103 93 84 82 67 80 86 64 56 59 88
271 273 251 231 233 237 234 233 233 229 225 230 222 213 210 214 204 194 191 186 153 138 157 140 146 176 160 142 155 170 143 131 123 107 87 54 47 46 34 33 129 105 101 107 105 128 131 131 130 127 120 118 112 96 77 53 31 27 31 36 51 46 55
233 225 219 222 225 227 220 220 225 219 219 221 215 211 210 210 211 207 202 195 178 158 127 150 164 156 134 139 144 128 126 122 108 96 69 63 66 59 52 73 107 109 108 100 107 119 122 130 128 128 126 121 114 115 110 101 62 49 45 51 56 42 29
252 214 200 210 216 220 218 218 213 197 204 188 193 192 180 167 174 183 180 174 166 148 152 131 138 132 140 151 150 135 135 119 107 97 93 67 74 73 58 42 74 105 100 103 112 114 124 130 129 127 128 130 136 134 127 129 139 104 104 107 118 59 145
298 259 209 208 206 223 218 205 175 200 221 165 142 140 158 153 140 134 129 116 93 129 123 103 119 132 140 158 164 143 138 133 123 115 109 97 87 93 82 52 45 66 89 102 106 112 126 128 127 136 139 143 147 143 122 136 140 168 161 182 182 180 190
296 273 261 223 189 193 182 187 168 163 138 139 132 126 130 110 108 94 84 85 94 90 110 107 109 132 145 161 186 161 149 138 134 133 130 127 117 102 94 89 70 74 89 89 87 84 76 79 117 128 148 157 154 133 124 124 54 353 124 312 303 283 285
295 283 272 266 238 173 179 192 165 155 143 133 120 113 111 113 105 103 92 94 101 85 81 122 118 140 144 152 164 179 152 141 140 142 136 130 126 121 111 96 94 81 90 88 86 82 76 61 59 94 84 89 62 74 108 148 131 245 306 310 293 286 289
285 271 247 246 245 220 191 181 165 164 148 140 130 125 130 118 109 97 88 88 86 88 68 33 122 124 136 143 157 220 165 147 145 137 130 121 120 115 113 115 110 95 93 92 90 86 80 73 63 80 72 81 88 97 123 93 24 308 296 294 302 299 296
282 257 206 183 218 251 230 189 165 165 152 149 142 140 138 133 124 121 114 102 97 91 94 92 55 123 136 143 147 152 135 138 148 143 140 138 128 122 117 113 107 101 97 97 96 96 96 98 91 95 109 108 105 130 200 62 359 298 312 307 304 302 303
280 256 230 171 188 222 201 197 168 177 185 160 150 142 151 155 144 138 137 127 120 118 122 122 93 109 141 139 138 136 132 134 160 133 130 131 129 129 134 130 122 116 107 103 97 90 81 81 97 104 102 105 123 146 13 353 319 333 311 306 305 310 312